M I D A S
Marine Information and Data Acquisition System
Tripno 1681 of the Zeeleeuw from 2009-04-24 06:37:32 to 2009-04-24 08:38:40
Back to CruiseResearch ActivitiesStationsMapUnderway DataData graphs

EquipmentUnitsComments
TimeDGPSUTC
LatitudeDGPSDM.mWGS84
LongitudeDGPSDM.mWGS84
SpeedMeteo Stationm/sRelative wind speed
DirectionMeteo StationdegRelative wind direction
TemperatureMeteo Stationdeg CelciusAir temperature
PressureMeteo StationPaAtmospheric pressure
HumidityMeteo Station%Relative humidity
Missing or incorrect values are displayed as -999
Metereological data collected by the RV Zeeleeuw from 2009-04-24 06:44:10 to 2009-04-24 11:29:50
Time Latitude Longitude Speed Direction Temperature Pressure Humidity
2009-04-24 06:45 51°13.68 2°55.894 4.5 346 10.8 102050 68
2009-04-24 06:46 51°13.689 2°55.803 5.4 355 10.8 102050 69
2009-04-24 06:47 51°13.693 2°55.754 5.7 7 10.7 102050 68
2009-04-24 06:48 51°13.703 2°55.75 6.8 35 10.7 102050 70
2009-04-24 06:49 51°13.766 2°55.693 3 34 10.7 102050 70
2009-04-24 06:50 51°13.878 2°55.607 1.9 343 10.8 102050 69
2009-04-24 06:51 51°13.998 2°55.514 4.2 31 10.8 102050 68
2009-04-24 06:52 51°14.12 2°55.42 2.5 34 10.8 102050 67
2009-04-24 06:53 51°14.236 2°55.292 2.1 13 10.8 102050 68
2009-04-24 06:54 51°14.336 2°55.116 1.3 11 10.9 102050 68
2009-04-24 06:55 51°14.422 2°54.898 1.1 308 11 102050 68
2009-04-24 06:56 51°14.404 2°54.603 6.6 305 11.1 102050 68
2009-04-24 06:57 51°14.316 2°54.297 5.7 310 11.2 102050 66
2009-04-24 06:58 51°14.226 2°53.984 6.6 303 11.2 102050 65
2009-04-24 06:59 51°14.125 2°53.675 5.8 304 11.2 102040 66
2009-04-24 07:00 51°14.023 2°53.366 7.3 308 11.2 102040 66
2009-04-24 07:01 51°13.924 2°53.054 7.2 307 11.2 102040 67
2009-04-24 07:02 51°13.825 2°52.741 8.8 303 11.2 102040 67
2009-04-24 07:03 51°13.721 2°52.432 6.5 310 11.2 102040 65
2009-04-24 07:04 51°13.616 2°52.123 6.8 303 11.2 102030 66
2009-04-24 07:05 51°13.512 2°51.813 7.5 302 11.2 102030 66
2009-04-24 07:06 51°13.395 2°51.546 7.5 304 11.2 102030 66
2009-04-24 07:07 51°13.281 2°51.483 7.8 302 11.2 102030 66
2009-04-24 07:08 51°13.212 2°51.465 8.6 306 11.1 102030 68
2009-04-24 07:09 51°13.162 2°51.438 7.4 306 11.1 102030 68
2009-04-24 07:10 51°13.121 2°51.401 8.6 302 11 102030 68
2009-04-24 07:11 51°13.083 2°51.357 6.3 309 11 102030 68
2009-04-24 07:12 51°13.024 2°51.281 7.4 304 11.1 102030 68
2009-04-24 07:13 51°12.971 2°51.174 5.5 307 11.1 102040 69
2009-04-24 07:14 51°12.934 2°51.064 3.6 304 11 102030 70
2009-04-24 07:15 51°12.903 2°50.964 4.1 303 11.1 102040 72
2009-04-24 07:16 51°12.873 2°50.874 2.6 303 11 102040 71
2009-04-24 07:17 51°12.843 2°50.786 6.1 308 11 102040 69
2009-04-24 07:18 51°12.815 2°50.698 4.4 308 10.9 102040 69
2009-04-24 07:19 51°12.787 2°50.612 3.7 306 10.9 102040 68
2009-04-24 07:20 51°12.76 2°50.526 4.4 301 10.9 102040 70
2009-04-24 07:21 51°12.735 2°50.44 5.8 310 11 102040 70
2009-04-24 07:22 51°12.709 2°50.353 6.1 311 11 102040 69
2009-04-24 07:23 51°12.683 2°50.267 4.4 302 11 102040 70
2009-04-24 07:24 51°12.656 2°50.18 4.9 303 11 102040 71
2009-04-24 07:25 51°12.63 2°50.093 4 305 11 102040 69
2009-04-24 07:26 51°12.604 2°50.006 4 302 11.1 102030 70
2009-04-24 07:27 51°12.579 2°49.918 3.3 307 11.2 102030 69
2009-04-24 07:28 51°12.555 2°49.83 4.7 301 11.2 102030 68
2009-04-24 07:29 51°12.531 2°49.742 3.9 308 11.2 102030 67
2009-04-24 07:30 51°12.507 2°49.655 3.2 304 11.2 102030 68
2009-04-24 07:31 51°12.484 2°49.568 4.5 304 11.3 102030 68
2009-04-24 07:32 51°12.461 2°49.482 3.3 310 11.3 102020 69
2009-04-24 07:33 51°12.438 2°49.398 3.2 301 11.4 102020 69
2009-04-24 07:34 51°12.415 2°49.314 3.2 308 11.4 102030 67
2009-04-24 07:35 51°12.392 2°49.23 4.4 303 11.5 102020 66
2009-04-24 07:36 51°12.37 2°49.145 3.9 306 11.5 102020 68
2009-04-24 07:37 51°12.348 2°49.061 4.4 307 11.5 102020 68
2009-04-24 07:38 51°12.327 2°48.978 5 303 11.5 102010 67
2009-04-24 07:39 51°12.306 2°48.896 4.5 308 11.6 102010 67
2009-04-24 07:40 51°12.287 2°48.815 4.3 303 11.6 102010 66
2009-04-24 07:41 51°12.268 2°48.736 4.4 309 11.5 102010 64
2009-04-24 07:42 51°12.251 2°48.657 3.8 306 11.5 102010 66
2009-04-24 07:43 51°12.236 2°48.581 4 312 11.6 102010 68
2009-04-24 07:44 51°12.221 2°48.517 3.2 310 11.6 102010 67
2009-04-24 07:45 51°12.205 2°48.464 4.2 302 11.6 102010 67
2009-04-24 07:46 51°12.181 2°48.409 5.3 304 11.7 102000 68
2009-04-24 07:47 51°12.139 2°48.374 5.3 308 11.7 102000 69
2009-04-24 07:48 51°12.1 2°48.382 5.6 338 11.8 102000 67
2009-04-24 07:49 51°12.093 2°48.416 6.2 3 11.7 102000 67
2009-04-24 07:50 51°12.099 2°48.423 4.5 5 11.5 102000 67
2009-04-24 07:51 51°12.105 2°48.417 5.5 13 11.6 101990 69
2009-04-24 07:52 51°12.108 2°48.403 4.7 21 11.6 101990 69
2009-04-24 07:53 51°12.11 2°48.389 4.9 11 11.6 101990 67
2009-04-24 07:54 51°12.127 2°48.415 6 360 11.7 101990 66
2009-04-24 07:55 51°12.147 2°48.503 6.8 351 11.7 101980 65
2009-04-24 07:56 51°12.172 2°48.61 7 355 11.7 101980 67
2009-04-24 07:57 51°12.175 2°48.643 6.2 355 11.6 101990 65
2009-04-24 07:58 51°12.177 2°48.654 6.3 4 11.7 101990 66
2009-04-24 07:59 51°12.179 2°48.653 5.6 4 11.6 101990 65
2009-04-24 08:00 51°12.181 2°48.642 5.7 13 11.7 101990 65
2009-04-24 08:01 51°12.181 2°48.627 7.3 10 11.7 101990 67
2009-04-24 08:02 51°12.179 2°48.608 6.4 8 11.7 101990 65
2009-04-24 08:03 51°12.177 2°48.585 5.9 19 11.8 101990 66
2009-04-24 08:04 51°12.175 2°48.559 6.9 17 11.8 101980 65
2009-04-24 08:05 51°12.172 2°48.532 6.1 18 11.9 101980 64
2009-04-24 08:06 51°12.169 2°48.505 4.9 16 12 101980 67
2009-04-24 08:07 51°12.168 2°48.489 6.2 8 12 101980 67
2009-04-24 08:08 51°12.197 2°48.564 7.3 359 11.9 101980 64
2009-04-24 08:09 51°12.255 2°48.718 7.6 359 11.9 101970 63
2009-04-24 08:10 51°12.316 2°48.89 9.1 356 12 101970 65
2009-04-24 08:11 51°12.371 2°49.066 7.5 354 11.9 101960 62
2009-04-24 08:12 51°12.438 2°49.231 7.9 359 12 101970 66
2009-04-24 08:13 51°12.526 2°49.372 7.9 355 12 101970 66
2009-04-24 08:14 51°12.592 2°49.536 7.4 356 11.9 101960 65
2009-04-24 08:15 51°12.662 2°49.699 6.9 356 11.9 101970 65
2009-04-24 08:16 51°12.734 2°49.859 7.3 358 12 101970 65
2009-04-24 08:17 51°12.801 2°50.025 7.1 356 12 101970 65
2009-04-24 08:18 51°12.873 2°50.188 8.2 357 12 101960 65
2009-04-24 08:19 51°12.93 2°50.361 9.6 357 12 101960 63
2009-04-24 08:20 51°12.979 2°50.542 7.9 354 12.1 101960 65
2009-04-24 08:21 51°13.038 2°50.715 6.9 354 12.1 101960 63
2009-04-24 08:22 51°13.1 2°50.874 7.4 5 12.1 101960 61
2009-04-24 08:23 51°13.159 2°51.03 9.1 354 12.2 101960 64
2009-04-24 08:24 51°13.216 2°51.186 7.4 355 12.2 101960 62
2009-04-24 08:25 51°13.276 2°51.339 8 358 12.2 101960 63
2009-04-24 08:26 51°13.334 2°51.497 7.3 354 12.2 101960 62
2009-04-24 08:27 51°13.393 2°51.652 8.1 356 12.3 101950 61
2009-04-24 08:28 51°13.453 2°51.816 6.3 1 12.3 101950 61
2009-04-24 08:29 51°13.516 2°51.983 8.3 360 12.4 101960 63
2009-04-24 08:30 51°13.58 2°52.151 7.2 351 12.4 101960 60
2009-04-24 08:31 51°13.643 2°52.318 7.6 356 12.4 101960 61
2009-04-24 08:32 51°13.72 2°52.469 8.3 358 12.5 101960 61
2009-04-24 08:33 51°13.798 2°52.617 6.9 357 12.5 101960 60
2009-04-24 08:34 51°13.875 2°52.767 5.2 2 12.5 101960 60
2009-04-24 08:35 51°13.952 2°52.92 6.8 1 12.5 101960 61
2009-04-24 08:36 51°14.029 2°53.073 6.1 4 12.5 101960 60
2009-04-24 08:37 51°14.1 2°53.218 6.1 3 12.6 101950 60
2009-04-24 08:38 51°14.156 2°53.332 7.3 3 12.5 101950 60
2009-04-24 08:39 51°14.207 2°53.434 6.9 9 12.5 101950 58
2009-04-24 08:40 51°14.254 2°53.538 5.8 6 12.6 101960 61
2009-04-24 08:41 51°14.295 2°53.641 6.6 7 12.7 101950 61
2009-04-24 08:42 51°14.342 2°53.765 8.2 9 12.7 101950 59
2009-04-24 08:43 51°14.39 2°53.893 5.4 4 12.7 101950 59
2009-04-24 08:44 51°14.422 2°54.03 9.5 353 12.7 101950 59
2009-04-24 08:45 51°14.446 2°54.178 9.4 352 12.8 101950 57
2009-04-24 08:46 51°14.456 2°54.36 10.7 353 12.8 101940 55
2009-04-24 08:47 51°14.453 2°54.554 9.8 350 12.8 101950 55
2009-04-24 08:48 51°14.432 2°54.753 10.2 347 12.8 101940 55
2009-04-24 08:49 51°14.384 2°54.957 10.5 344 12.8 101940 56
2009-04-24 08:50 51°14.31 2°55.148 7.4 336 12.9 101940 56
2009-04-24 08:51 51°14.235 2°55.279 8.9 327 13.1 101950 56
2009-04-24 08:52 51°14.165 2°55.365 10.2 325 13.2 101940 57
2009-04-24 08:53 51°14.099 2°55.465 10.2 337 13.3 101940 55
2009-04-24 08:54 51°14.047 2°55.562 8.6 336 13.3 101940 55
2009-04-24 08:55 51°14.008 2°55.633 7.5 311 13.3 101950 55
2009-04-24 08:56 51°13.974 2°55.644 4.2 302 13.5 101950 55
2009-04-24 08:57 51°13.961 2°55.619 3.1 301 13.6 101950 55
2009-04-24 08:58 51°13.961 2°55.632 4.1 59 13.8 101950 54
2009-04-24 08:59 51°13.967 2°55.578 3.2 310 13.8 101950 54
2009-04-24 09:00 51°13.98 2°55.509 4.3 56 13.8 101950 54
2009-04-24 09:01 51°13.987 2°55.486 3.8 56 13.7 101950 53
2009-04-24 09:02 51°13.996 2°55.466 4.2 56 13.6 101950 53
2009-04-24 09:03 51°13.999 2°55.462 5 56 13.5 101940 54
2009-04-24 09:04 51°14.001 2°55.458 4.5 50 13.7 101940 54
2009-04-24 09:05 51°14 2°55.455 3.1 55 13.7 101940 55
2009-04-24 09:06 51°13.999 2°55.454 3.9 59 13.9 101940 53
2009-04-24 09:07 51°13.999 2°55.453 4.6 59 13.9 101930 54
2009-04-24 09:08 51°13.999 2°55.452 4.9 59 13.9 101930 54
2009-04-24 09:09 51°13.999 2°55.452 3.2 58 13.8 101930 54
2009-04-24 09:10 51°14 2°55.452 5.3 55 13.8 101920 54
2009-04-24 09:11 51°14 2°55.451 5.1 44 13.8 101930 54
2009-04-24 09:12 51°14 2°55.452 6.9 34 13.8 101930 52
2009-04-24 09:13 51°14.001 2°55.452 6.6 44 13.9 101930 51
2009-04-24 09:14 51°14.001 2°55.452 4.5 52 13.9 101930 51
2009-04-24 09:15 51°14.001 2°55.452 7.2 41 13.8 101920 49
2009-04-24 09:16 51°14 2°55.452 7.3 39 13.7 101920 50
2009-04-24 09:17 51°14 2°55.452 7.4 57 13.6 101920 50
2009-04-24 09:18 51°14 2°55.452 7.9 43 13.6 101920 50
2009-04-24 09:19 51°14 2°55.453 6.3 52 13.6 101920 52
2009-04-24 09:20 51°14 2°55.453 4.7 50 13.7 101920 51
2009-04-24 09:21 51°14 2°55.452 6.7 54 13.8 101910 51
2009-04-24 09:22 51°14 2°55.452 6.6 42 13.8 101920 49
2009-04-24 09:23 51°14 2°55.452 5.6 57 13.8 101920 52
2009-04-24 09:24 51°14 2°55.452 5.6 53 13.8 101920 50
2009-04-24 09:25 51°14 2°55.453 4.2 40 13.8 101910 52
2009-04-24 09:26 51°14 2°55.453 5.6 53 13.9 101910 53
2009-04-24 09:27 51°14 2°55.453 5.3 55 13.9 101910 51
2009-04-24 09:28 51°14 2°55.452 4.6 55 13.9 101910 50
2009-04-24 09:29 51°14 2°55.452 6.3 50 14 101910 51
2009-04-24 09:30 51°14 2°55.453 4.8 51 14 101910 51
2009-04-24 09:31 51°14 2°55.453 5.5 58 14 101910 51
2009-04-24 09:32 51°14.001 2°55.453 5.2 56 14 101910 51
2009-04-24 09:33 51°14.001 2°55.454 6.1 44 14 101910 51
2009-04-24 09:34 51°14.001 2°55.453 5.3 57 14.1 101900 50
2009-04-24 09:35 51°14.001 2°55.453 5.9 56 14.1 101900 51
2009-04-24 09:36 51°14.001 2°55.452 5.6 56 14.1 101900 51
2009-04-24 09:37 51°14.001 2°55.453 5.2 38 14 101900 52
2009-04-24 09:38 51°14 2°55.453 5.9 59 14 101900 50
2009-04-24 09:39 51°14 2°55.453 4.2 51 14 101900 51
2009-04-24 09:40 51°14 2°55.453 3.6 57 14 101890 51
2009-04-24 09:41 51°14 2°55.453 6 54 13.9 101890 50
2009-04-24 09:42 51°14 2°55.453 5.8 54 14 101890 51
2009-04-24 09:43 51°14 2°55.453 5.2 50 14.1 101890 51
2009-04-24 09:44 51°14 2°55.452 4 59 14.1 101890 50
2009-04-24 09:45 51°14 2°55.452 6.8 54 14.2 101890 51
2009-04-24 09:46 51°14 2°55.452 7.8 45 14.2 101890 50
2009-04-24 09:47 51°14 2°55.453 6.4 54 14.2 101880 49
2009-04-24 09:48 51°13.999 2°55.452 7.5 59 14.1 101880 49
2009-04-24 09:49 51°14 2°55.454 7.4 58 14.2 101880 50
2009-04-24 09:50 51°14 2°55.453 8.2 40 14.2 101880 50
2009-04-24 09:51 51°14 2°55.453 8.9 37 14.1 101880 48
2009-04-24 09:52 51°14 2°55.453 8.4 36 14 101880 51
2009-04-24 09:53 51°13.999 2°55.453 4.8 58 14 101880 50
2009-04-24 09:54 51°14 2°55.453 5 44 14 101880 49
2009-04-24 09:55 51°14 2°55.453 8.3 41 14.1 101880 49
2009-04-24 09:56 51°14 2°55.453 9.4 55 14.2 101870 47
2009-04-24 09:57 51°14 2°55.453 6.8 40 14.2 101870 51
2009-04-24 09:58 51°14 2°55.453 5.1 55 14.2 101870 50
2009-04-24 09:59 51°14 2°55.453 8.4 51 14.1 101870 47
2009-04-24 10:00 51°13.999 2°55.453 6.1 57 14.1 101870 48
2009-04-24 10:01 51°13.999 2°55.453 4.8 56 14 101860 48
2009-04-24 10:02 51°13.999 2°55.453 6.7 52 14.1 101860 49
2009-04-24 10:03 51°13.999 2°55.454 4.7 40 14.1 101860 48
2009-04-24 10:04 51°13.999 2°55.454 6.1 38 14.1 101860 48
2009-04-24 10:05 51°13.999 2°55.453 6.5 39 14.1 101860 49
2009-04-24 10:06 51°13.999 2°55.455 5.1 38 14.1 101850 47
2009-04-24 10:07 51°14 2°55.453 6.9 39 14.1 101850 49
2009-04-24 10:08 51°14 2°55.453 6.9 42 14.2 101840 51
2009-04-24 10:09 51°14 2°55.454 7.7 55 14.3 101840 49
2009-04-24 10:10 51°13.999 2°55.453 7.6 52 14.3 101850 47
2009-04-24 10:11 51°14 2°55.455 8.3 57 14.2 101840 47
2009-04-24 10:12 51°14 2°55.455 6.4 58 14.2 101840 46
2009-04-24 10:13 51°14 2°55.455 5.6 56 14.2 101840 47
2009-04-24 10:14 51°14 2°55.455 4.6 43 14.4 101840 48
2009-04-24 10:15 51°14 2°55.454 7.5 54 14.4 101840 47
2009-04-24 10:16 51°14 2°55.454 6.2 50 14.3 101840 46
2009-04-24 10:17 51°14 2°55.454 5.6 52 14.3 101840 47
2009-04-24 10:18 51°14 2°55.454 6.4 42 14.3 101830 47
2009-04-24 10:19 51°14 2°55.454 4.4 52 14.4 101830 46
2009-04-24 10:20 51°14 2°55.453 6.4 39 14.5 101830 47
2009-04-24 10:21 51°14 2°55.452 6.5 43 14.4 101830 47
2009-04-24 10:22 51°14 2°55.452 4.3 40 14.4 101820 46
2009-04-24 10:23 51°14 2°55.452 4.1 52 14.3 101820 48
2009-04-24 10:24 51°14 2°55.452 4.2 57 14.4 101810 46
2009-04-24 10:25 51°14 2°55.452 6.1 51 14.6 101810 48
2009-04-24 10:26 51°14 2°55.453 7.2 36 14.7 101810 46
2009-04-24 10:27 51°14 2°55.452 5.6 41 14.6 101810 47
2009-04-24 10:28 51°14 2°55.452 4.7 36 14.6 101810 46
2009-04-24 10:29 51°13.999 2°55.453 4.8 43 14.5 101810 48
2009-04-24 10:30 51°14 2°55.452 3.5 56 14.6 101810 47
2009-04-24 10:31 51°14 2°55.452 4.7 51 14.7 101800 44
2009-04-24 10:32 51°14 2°55.453 4.4 56 15 101800 43
2009-04-24 10:33 51°14 2°55.453 3.2 60 15.2 101800 42
2009-04-24 10:34 51°14 2°55.453 3.2 59 15.4 101800 42
2009-04-24 10:35 51°14 2°55.452 2.4 52 15.4 101800 40
2009-04-24 10:36 51°14 2°55.452 2 56 15.4 101790 41
2009-04-24 10:37 51°14 2°55.452 4.9 56 15.4 101790 41
2009-04-24 10:38 51°14 2°55.452 3.2 50 15.3 101790 42
2009-04-24 10:39 51°14 2°55.453 2.5 51 15.3 101780 41
2009-04-24 10:40 51°14 2°55.452 3.2 56 15.1 101780 44
2009-04-24 10:41 51°14 2°55.452 5.9 52 15.1 101780 42
2009-04-24 10:42 51°14 2°55.452 7.5 57 15.1 101780 41
2009-04-24 10:43 51°14.001 2°55.452 4.8 51 15.1 101780 42
2009-04-24 10:44 51°14.001 2°55.453 5.5 58 15.1 101780 41
2009-04-24 10:45 51°14.001 2°55.453 4.7 56 15.1 101780 40
2009-04-24 10:46 51°14 2°55.453 5 57 15.1 101780 44
2009-04-24 10:47 51°14 2°55.453 3.5 57 15.2 101780 41
2009-04-24 10:48 51°14 2°55.452 4.8 56 15.5 101770 41
2009-04-24 10:49 51°14 2°55.453 3.3 57 15.6 101780 39
2009-04-24 10:50 51°14 2°55.453 7.3 54 15.8 101780 41
2009-04-24 10:51 51°14 2°55.454 4.1 54 15.5 101770 41
2009-04-24 10:52 51°14 2°55.452 3.2 58 15.3 101770 42
2009-04-24 10:53 51°14 2°55.453 5.8 52 15.3 101770 40
2009-04-24 10:54 51°14 2°55.453 5.1 51 15.4 101770 40
2009-04-24 10:55 51°14 2°55.453 5.3 56 15.2 101770 41
2009-04-24 10:56 51°14 2°55.452 6.5 59 15.1 101770 43
2009-04-24 10:57 51°14 2°55.453 5.4 51 14.9 101770 42
2009-04-24 10:58 51°14 2°55.452 1.5 53 14.9 101770 42
2009-04-24 10:59 51°14 2°55.453 7.8 51 15.3 101770 40
2009-04-24 11:00 51°14 2°55.453 4.8 44 15.1 101770 43
2009-04-24 11:01 51°13.999 2°55.452 6 58 14.9 101760 40
2009-04-24 11:02 51°13.999 2°55.452 5.3 38 14.9 101760 41
2009-04-24 11:03 51°13.999 2°55.453 5.2 35 14.9 101760 42
2009-04-24 11:04 51°13.999 2°55.455 8.8 50 14.9 101750 43
2009-04-24 11:05 51°14.005 2°55.454 5.6 55 14.8 101750 44
2009-04-24 11:06 51°14.114 2°55.419 3.1 38 14.9 101760 42
2009-04-24 11:07 51°14.24 2°55.29 1.7 53 15.1 101760 46
2009-04-24 11:08 51°14.345 2°55.103 4.7 310 15.2 101760 42
2009-04-24 11:09 51°14.448 2°54.922 5.3 304 15.3 101760 41
2009-04-24 11:10 51°14.515 2°54.729 4.7 309 15.3 101760 40
2009-04-24 11:11 51°14.558 2°54.527 4.9 310 15.2 101760 41
2009-04-24 11:12 51°14.593 2°54.327 4.1 310 15.1 101750 42
2009-04-24 11:13 51°14.69 2°54.272 4.5 27 15.2 101750 43
2009-04-24 11:14 51°14.779 2°54.391 6.3 355 15 101740 42
2009-04-24 11:15 51°14.756 2°54.593 8.2 333 14.8 101740 42
2009-04-24 11:16 51°14.658 2°54.768 7.3 324 14.8 101730 45
2009-04-24 11:17 51°14.543 2°54.928 12.9 305 14.9 101730 43
2009-04-24 11:18 51°14.418 2°55.064 10.5 302 15 101700 41
2009-04-24 11:19 51°14.295 2°55.196 12.2 337 15 101720 42
2009-04-24 11:20 51°14.185 2°55.352 9.3 338 15 101730 42
2009-04-24 11:21 51°14.07 2°55.454 7.5 331 15.1 101730 41
2009-04-24 11:22 51°13.959 2°55.532 6.4 339 15.1 101730 41
2009-04-24 11:23 51°13.856 2°55.609 9.9 333 15.2 101730 42
2009-04-24 11:24 51°13.771 2°55.695 6.3 329 15.1 101730 43
2009-04-24 11:25 51°13.722 2°55.782 5.1 346 15.2 101730 42
2009-04-24 11:26 51°13.694 2°55.857 3.9 344 15.1 101730 42
2009-04-24 11:27 51°13.677 2°55.919 4.6 338 15.2 101730 42
2009-04-24 11:28 51°13.665 2°55.954 5 336 15.3 101720 40
2009-04-24 11:29 51°13.662 2°55.959 4.5 351 15.4 101720 42